Stevens Point, WI

9:34 PM CST on December 07, 2016 (GMT -0600)
Stevens Point Municipal

Weather History for KSTE - January, 2013

Change the Weather History Date:

Thursday, January 10, 2013

  Actual Average Record
Temperature  
Mean Temperature 22 °F -  
Max Temperature 33 °F 20 °F 48 °F (2012)
Min Temperature 11 °F 1 °F -28 °F (1982)
Degree Days  
Heating Degree Days 43    
Moisture  
Dew Point 21 °F    
Average Humidity 83    
Maximum Humidity 99    
Minimum Humidity 57    
Precipitation  
Precipitation 0.19 in - - ()
Sea Level Pressure  
Sea Level Pressure 30.23 in    
Wind  
Wind Speed 4 mph (ESE)    
Max Wind Speed 15 mph    
Max Gust Speed 23 mph    
Visibility 8 miles    
Events Rain    
Averages and records for this station are not official NWS values.
T = Trace of Precipitation, MM = Missing Value Source: NWS Daily Summary

Daily Weather History Graph

Daily Weather History Graph

Search for Another Location

Airport or City:

Trip Planner

Search our weather history database for the weather conditions in past years. The results will help you decide how hot, cold, wet, or windy it might be!

Date:

Astronomy

Jan. 10, 2013 Rise Set
Actual Time 7:33 AM CST 4:38 PM CST
Civil Twilight 7:00 AM CST 5:11 PM CST
Nautical Twilight 6:24 AM CST 5:47 PM CST
Astronomical Twilight 5:49 AM CST 6:22 PM CST
Moon 6:13 AM CST (1/10) 3:46 PM CST (1/10)
Length of Visible Light 10h 10m
Length of Day
9h 05m
Waning Crescent, 2% of the Moon is Illuminated
Jan 10
Waning Crescent
Jan 11
New
Jan 18
First Quarter
Jan 26
Full
Feb 3
Last Quarter

Hourly Weather History & Observations

Time (CST) Temp. Windchill Dew Point Humidity Pressure Visibility Wind Dir Wind Speed Gust Speed Precip Events Conditions
12:15 AM 15.6 °F - 13.5 °F 91% 30.38 in 10.0 mi Calm Calm - N/A   Clear
12:35 AM 14.5 °F - 12.9 °F 93% 30.39 in 10.0 mi Calm Calm - N/A   Clear
12:55 AM 14.7 °F 7.3 °F 12.6 °F 91% 30.40 in 10.0 mi SSW 4.6 mph - N/A   Clear
2:15 AM 17.6 °F 12.3 °F 15.8 °F 93% 30.44 in 10.0 mi South 3.5 mph - N/A   Clear
2:35 AM 17.8 °F - 15.6 °F 91% 30.44 in 10.0 mi Calm Calm - N/A   Clear
2:55 AM 17.6 °F - 15.8 °F 93% 30.44 in 10.0 mi Calm Calm - N/A   Clear
3:15 AM 14.5 °F - 12.9 °F 93% 30.43 in 10.0 mi Calm Calm - N/A   Clear
3:35 AM 16.9 °F - 15.4 °F 94% 30.44 in 10.0 mi Calm Calm - N/A   Clear
3:55 AM 14.2 °F - 12.6 °F 93% 30.43 in 10.0 mi Calm Calm - N/A   Clear
4:15 AM 13.5 °F - 11.8 °F 93% 30.43 in 10.0 mi Calm Calm - N/A   Clear
4:35 AM 13.1 °F - 11.7 °F 94% 30.42 in 10.0 mi Calm Calm - N/A   Clear
4:55 AM 13.5 °F - 12.0 °F 94% 30.42 in 10.0 mi Calm Calm - N/A   Clear
5:35 AM 12.7 °F - 11.1 °F 93% 30.42 in 10.0 mi Calm Calm - N/A   Clear
5:55 AM 12.0 °F - 9.9 °F 91% 30.42 in 10.0 mi Calm Calm - N/A   Clear
6:15 AM 12.2 °F - 10.6 °F 93% 30.42 in 10.0 mi Calm Calm - N/A   Clear
6:35 AM 11.8 °F - 9.7 °F 91% 30.42 in 10.0 mi Calm Calm - N/A   Clear
6:55 AM 15.4 °F 9.8 °F 13.5 °F 92% 30.41 in 10.0 mi East 3.5 mph - N/A   Clear
7:15 AM 16.3 °F - 14.0 °F 90% 30.41 in 10.0 mi Calm Calm - N/A   Clear
7:35 AM 16.7 °F - 14.0 °F 89% 30.41 in 10.0 mi Calm Calm - N/A   Clear
7:55 AM 16.3 °F 9.2 °F 13.6 °F 89% 30.40 in 10.0 mi ESE 4.6 mph - N/A   Clear
8:15 AM 16.0 °F 8.8 °F 13.3 °F 89% 30.40 in 10.0 mi East 4.6 mph - N/A   Clear
8:35 AM 18.3 °F 13.1 °F 15.4 °F 89% 30.40 in 10.0 mi East 3.5 mph - N/A   Clear
9:15 AM 21.0 °F 14.6 °F 16.7 °F 83% 30.39 in 10.0 mi East 4.6 mph - N/A   Clear
9:35 AM 21.6 °F 16.8 °F 16.9 °F 82% 30.39 in 10.0 mi ESE 3.5 mph - N/A   Clear
9:55 AM 23.2 °F 17.2 °F 17.1 °F 77% 30.38 in 10.0 mi East 4.6 mph - N/A   Clear
10:15 AM 25.9 °F 19.2 °F 18.1 °F 73% 30.36 in 10.0 mi ESE 5.8 mph - N/A   Clear
10:35 AM 28.4 °F 23.3 °F 18.5 °F 66% 30.35 in 10.0 mi ESE 4.6 mph - N/A   Clear
10:55 AM 29.8 °F 22.2 °F 18.1 °F 62% 30.34 in 10.0 mi SE 8.1 mph - N/A   Clear
11:15 AM 30.9 °F 23.5 °F 18.1 °F 59% 30.33 in 10.0 mi SE 8.1 mph - N/A   Clear
11:35 AM 31.8 °F 25.4 °F 18.7 °F 58% 30.31 in 10.0 mi SE 6.9 mph - N/A   Clear
11:55 AM 32.0 °F 26.4 °F 19.0 °F 59% 30.30 in 10.0 mi SE 5.8 mph - N/A   Clear
12:15 PM 32.2 °F 24.4 °F 18.9 °F 58% 30.28 in 10.0 mi SSE 9.2 mph - N/A   Clear
12:35 PM 32.9 °F 27.5 °F 19.0 °F 57% 30.26 in 10.0 mi SE 5.8 mph - N/A   Clear
12:55 PM 33.3 °F 27.1 °F 19.6 °F 57% 30.26 in 10.0 mi SE 6.9 mph - N/A   Clear
1:15 PM 32.2 °F 25.0 °F 20.5 °F 62% 30.25 in 10.0 mi East 8.1 mph - N/A   Clear
1:35 PM 32.5 °F 24.8 °F 19.8 °F 59% 30.23 in 10.0 mi East 9.2 mph - N/A   Clear
1:55 PM 32.4 °F 25.3 °F 20.3 °F 61% 30.21 in 10.0 mi East 8.1 mph - N/A   Clear
2:15 PM 32.2 °F 25.0 °F 20.8 °F 63% 30.20 in 10.0 mi East 8.1 mph - N/A   Clear
2:35 PM 32.5 °F 24.2 °F 20.3 °F 61% 30.20 in 10.0 mi ESE 10.4 mph - N/A   Clear
2:55 PM 32.0 °F 23.6 °F 20.5 °F 63% 30.19 in 10.0 mi East 10.4 mph - N/A   Clear
3:15 PM 31.6 °F 24.4 °F 21.6 °F 66% 30.20 in 10.0 mi East 8.1 mph - N/A   Clear
3:35 PM 32.0 °F 27.5 °F 22.1 °F 67% 30.20 in 10.0 mi ESE 4.6 mph - N/A   Clear
3:55 PM 32.0 °F 24.2 °F 22.8 °F 69% 30.19 in 10.0 mi East 9.2 mph - N/A   Clear
4:15 PM 31.8 °F 23.9 °F 23.9 °F 73% 30.18 in 10.0 mi East 9.2 mph - N/A   Clear
4:35 PM 31.6 °F 25.1 °F 24.3 °F 74% 30.17 in 10.0 mi East 6.9 mph - N/A   Clear
4:55 PM 31.8 °F 23.9 °F 24.6 °F 75% 30.15 in 10.0 mi East 9.2 mph - N/A   Scattered Clouds
5:15 PM 32.0 °F 23.6 °F 25.7 °F 78% 30.13 in 10.0 mi East 10.4 mph - N/A   Scattered Clouds
5:35 PM 32.0 °F 23.0 °F 26.2 °F 79% 30.11 in 10.0 mi ENE 11.5 mph - N/A   Mostly Cloudy
5:55 PM 32.2 °F 23.2 °F 27.1 °F 82% 30.11 in 10.0 mi East 11.5 mph 17.3 mph N/A   Mostly Cloudy
6:15 PM 32.5 °F 22.7 °F 27.9 °F 83% 30.10 in 10.0 mi ESE 13.8 mph 17.3 mph N/A Rain Light Rain
6:35 PM 32.4 °F 23.0 °F 28.9 °F 87% 30.09 in 7.0 mi ESE 12.7 mph - N/A Rain Light Rain
6:55 PM 32.2 °F 21.8 °F 29.3 °F 89% 30.07 in 7.0 mi ESE 15.0 mph 23.0 mph 0.01 in Rain Light Rain
7:15 PM 32.0 °F 22.5 °F 29.8 °F 92% 30.06 in 5.0 mi East 12.7 mph 17.3 mph 0.01 in   Overcast
7:35 PM 32.0 °F 24.2 °F 30.2 °F 93% 30.04 in 3.0 mi ESE 9.2 mph 16.1 mph 0.03 in   Overcast
7:55 PM 32.0 °F 21.6 °F 30.7 °F 95% 30.01 in 2.5 mi East 15.0 mph - 0.07 in Rain Light Rain
8:15 PM 32.0 °F 22.1 °F 30.9 °F 96% 30.00 in 2.5 mi East 13.8 mph 18.4 mph 0.02 in   Overcast
8:35 PM 32.2 °F 23.2 °F 31.1 °F 96% 29.99 in 3.0 mi ESE 11.5 mph - 0.04 in Rain Light Rain
8:55 PM 32.0 °F 22.5 °F 31.5 °F 98% 29.97 in 3.0 mi ESE 12.7 mph - 0.07 in Rain Light Rain
9:15 PM 32.2 °F 23.8 °F 31.8 °F 99% 29.96 in 4.0 mi ESE 10.4 mph 21.9 mph N/A Rain Light Rain
9:35 PM 32.4 °F 22.1 °F 31.6 °F 97% 29.95 in 5.0 mi ESE 15.0 mph 20.7 mph 0.01 in Rain Light Rain
9:55 PM 32.2 °F 22.7 °F 31.8 °F 99% 29.93 in 2.0 mi ESE 12.7 mph 17.3 mph 0.02 in Rain Light Rain
10:15 PM 32.2 °F 24.4 °F 31.8 °F 99% 29.92 in 2.0 mi SE 9.2 mph - N/A Rain Rain
10:35 PM 32.2 °F 24.4 °F 31.8 °F 99% 29.90 in 3.0 mi ESE 9.2 mph - N/A   Drizzle
10:55 PM 32.2 °F 24.4 °F 32.0 °F 99% 29.89 in 3.0 mi ESE 9.2 mph 16.1 mph N/A   Overcast
11:15 PM 32.4 °F 23.5 °F 32.0 °F 99% 29.88 in 4.0 mi SE 11.5 mph 17.3 mph N/A Rain Light Rain
11:35 PM 32.4 °F 24.0 °F 32.0 °F 99% 29.88 in 4.0 mi SE 10.4 mph 16.1 mph 0.01 in Rain Light Rain
11:55 PM 32.5 °F 24.2 °F 32.0 °F 98% 29.86 in 4.0 mi ESE 10.4 mph 16.1 mph 0.02 in Rain Light Rain